Wetbulb
49.49 43.89 40.48 44.33 45.41 44.61 44.65 43.59 41.66 42.36 45.64 43.39 42.99 43.44 44.66 47.43 47.14 46.25 48.31 49.45 50.76 52.08 51.97 51.19 51.21 54.82 51.84 51.16 51.92 52.32 56.80 55.95 60.08 59.73 59.36 59.29 59.51 60.10 60.52 61.12 62.18 62.67 62.90 60.99
44.91 40.68 44.08 47.12 46.38 44.01 44.21 42.57 41.68 44.44 45.20 44.11 41.88 42.29 43.48 46.17 45.97 48.02 48.11 49.04 50.32 47.03 45.21 46.49 47.32 47.58 47.76 47.94 49.17 50.51 51.32 51.60 51.85 52.80 54.70 57.10 55.95 54.78 54.53 54.56 56.26 56.46 56.73 57.10
40.73 42.39 45.89 45.59 44.68 43.16 42.68 41.57 41.74 41.32 43.69 43.92 42.16 40.82 41.19 45.12 46.09 46.93 48.35 48.21 47.03 45.72 43.55 44.06 44.86 45.24 45.69 46.05 47.16 49.68 50.10 50.14 49.88 51.20 52.55 52.24 52.34 52.09 52.32 53.07 53.71 55.60 55.88 55.53
42.30 45.87 44.06 44.50 42.00 43.47 40.40 45.77 43.97 42.06 40.69 36.79 42.59 35.17 41.43 42.76 43.54 45.85 48.36 48.91 45.74 44.03 44.04 44.23 43.94 44.52 45.05 45.54 47.00 48.38 48.31 48.06 48.29 48.43 48.69 49.00 49.31 49.15 49.95 50.73 51.99 52.96 54.07 54.36
41.04 42.25 41.96 42.61 42.72 44.67 41.37 45.55 43.60 42.28 40.14 37.79 38.00 36.44 39.86 41.56 40.43 43.61 45.68 44.11 44.04 44.56 45.36 44.54 45.31 46.23 45.30 45.22 45.02 45.68 45.98 45.80 45.71 45.99 46.20 46.33 46.30 47.35 48.25 48.81 48.69 50.08 51.95 52.49
41.19 44.63 44.82 43.69 45.17 45.38 46.42 42.46 41.21 41.51 39.12 31.85 35.46 35.71 35.38 39.58 40.92 41.70 41.86 42.86 43.08 43.33 43.66 43.26 44.32 45.53 44.52 43.42 43.64 44.83 44.97 44.11 44.23 44.07 43.99 43.92 43.71 43.95 44.25 44.49 45.23 46.12 48.04 50.19
39.52 39.77 42.85 44.23 42.08 45.34 43.42 39.07 29.37 28.63 29.83 28.29 33.22 33.96 36.17 38.42 41.48 43.99 42.01 42.63 43.61 44.09 43.18 42.69 41.93 42.27 42.61 42.78 42.61 43.76 43.48 42.71 42.71 42.50 42.35 42.31 41.97 41.78 41.59 41.68 42.23 42.50 43.55 45.07
33.43 30.16 39.92 43.56 41.79 40.00 40.91 36.95 31.09 25.36 24.38 26.40 32.50 30.58 35.98 38.74 40.79 40.36 41.79 42.85 42.00 42.17 41.93 41.56 41.90 41.97 42.28 42.73 42.37 42.44 42.36 42.08 42.03 41.52 41.05 40.76 40.52 39.95 39.99 40.04 40.15 40.31 40.84 41.61
33.40 33.42 40.62 41.42 42.71 43.32 38.87 34.26 36.81 29.26 26.60 26.72 28.42 30.78 35.58 38.66 37.85 38.75 40.37 41.94 40.93 41.49 42.32 42.31 42.23 41.78 41.74 41.77 42.12 41.94 41.58 41.36 41.14 40.72 40.38 39.84 39.73 39.54 38.91 38.73 38.47 38.28 38.83 40.28
36.68 31.83 38.49 39.65 43.29 42.00 40.00 40.20 31.84 30.84 21.65 20.32 24.17 27.27 29.00 34.43 36.65 38.19 38.61 40.40 40.41 41.43 41.49 41.45 41.95 41.84 41.76 41.82 41.50 41.21 41.16 40.52 40.13 40.04 39.48 39.24 38.71 38.59 38.22 37.90 37.13 37.09 37.39 37.48
37.46 35.45 34.88 39.23 37.03 35.68 35.76 34.39 34.01 33.55 28.87 23.67 21.93 25.89 33.31 34.36 37.48 37.88 38.41 39.87 40.99 40.82 41.01 41.30 41.40 41.69 41.88 41.23 40.55 39.85 39.25 38.56 38.25 38.42 38.07 37.59 37.08 36.87 36.70 36.19 35.91 35.85 36.04 36.23
38.27 35.57 31.81 34.51 36.92 37.97 37.92 35.68 34.74 28.06 25.78 26.58 27.18 26.88 36.70 35.71 36.74 38.50 38.07 39.14 40.28 41.27 41.36 41.31 41.00 40.95 40.16 39.26 38.87 37.73 36.74 36.56 36.81 37.04 36.58 36.06 35.43 35.13 34.97 34.76 34.40 34.74 34.14 34.87
37.26 32.80 27.23 30.81 34.34 36.53 34.40 35.73 36.21 33.78 30.40 25.47 23.52 25.91 36.50 36.49 37.05 37.82 38.01 39.01 40.27 40.74 40.48 40.31 40.01 39.30 38.22 37.13 36.11 34.99 34.92 35.03 36.06 36.28 35.52 34.27 33.39 32.95 32.31 32.28 32.39 32.67 32.43 32.30
39.53 32.26 28.58 25.60 29.16 34.11 32.79 33.49 35.09 33.32 25.19 26.55 27.23 29.21 31.77 33.84 36.03 37.33 38.32 39.49 39.85 40.78 40.98 39.81 38.56 37.50 36.21 35.17 34.83 34.25 34.22 34.48 34.76 34.71 33.79 31.58 30.72 30.56 30.34 30.41 30.26 30.22 30.43 30.20
34.80 24.84 27.86 30.40 31.50 33.18 34.36 33.65 34.31 32.37 31.92 28.11 31.15 30.56 33.98 36.19 37.96 38.63 39.37 39.43 39.40 39.88 40.28 39.83 37.85 36.35 34.70 34.23 33.48 32.92 32.41 33.04 32.76 32.07 30.22 28.94 28.86 28.88 28.39 27.95 27.82 27.98 27.97 28.39
35.36 26.27 28.32 25.11 30.02 30.77 29.28 33.36 33.78 33.79 33.28 33.35 33.50 32.74 38.80 40.06 38.36 37.54 39.20 39.21 39.18 39.60 40.19 38.29 36.61 34.93 33.38 32.50 31.32 31.11 30.43 30.79 30.80 28.62 27.29 27.20 26.61 26.41 26.21 26.16 25.81 25.99 25.93 26.14
32.41 27.84 19.40 16.05 25.02 27.01 23.16 28.94 31.95 32.84 34.00 33.79 30.79 35.61 37.09 36.06 37.20 37.19 38.00 39.13 39.09 38.89 37.20 35.70 34.60 33.21 31.54 29.75 29.64 27.89 28.63 28.62 27.27 25.90 25.58 24.93 24.58 24.47 24.75 24.87 24.75 24.44 24.10 24.73
31.23 27.81 22.20 16.85 14.14 12.31 26.46 29.58 32.96 33.02 34.18 35.56 35.37 36.07 36.84 37.08 35.55 34.72 35.02 37.11 36.16 35.30 34.10 33.09 32.08 30.53 29.06 27.51 26.66 27.14 26.91 26.21 24.59 23.50 23.27 23.20 22.96 22.99 23.23 23.21 23.12 23.07 23.41 23.35
33.00 27.33 20.38 17.24 3.69 18.38 23.90 27.64 30.10 29.88 28.47 32.09 33.64 34.05 34.63 34.78 33.76 31.86 34.16 34.93 34.39 33.37 32.02 30.56 29.74 28.22 25.63 24.81 24.96 25.43 24.58 23.32 22.82 21.76 21.28 20.89 21.26 21.04 21.22 21.50 21.27 22.01 22.34 22.84
29.24 26.45 22.33 4.58 9.00 7.86 23.79 29.89 33.66 31.75 21.62 31.65 34.05 33.98 34.26 34.75 29.98 31.30 32.71 32.35 31.34 30.52 29.57 27.99 26.72 25.99 24.62 22.82 23.76 23.84 22.55 20.71 19.20 19.27 18.94 19.22 19.61 19.59 19.41 20.51 20.70 21.35 21.76 22.57
17.16 12.43 12.95 8.66 6.05 15.18 25.29 28.61 30.90 19.14 23.76 31.13 32.37 32.35 32.70 31.14 32.00 31.30 31.75 30.43 29.35 28.33 27.05 25.48 24.56 22.81 21.39 21.42 22.36 21.36 19.45 17.90 17.58 17.10 16.86 16.98 17.25 17.47 19.41 19.38 18.99 19.60 19.74 20.11
17.75 11.79 8.51 7.88 6.10 12.42 27.02 28.96 26.14 28.23 30.07 30.49 29.96 30.73 31.04 30.37 29.88 30.17 30.07 28.65 27.50 26.28 25.47 24.77 22.90 21.41 19.91 20.59 20.54 19.03 17.39 16.74 14.77 13.43 13.37 12.90 12.93 15.91 18.26 14.12 16.18 16.33 16.21 15.83
15.48 20.42 16.01 19.36 19.38 26.68 27.72 28.78 30.89 31.53 31.06 30.70 30.33 30.43 30.61 29.83 29.26 29.32 29.32 28.48 27.72 26.31 24.48 23.28 21.96 21.13 19.20 18.13 17.72 16.35 15.08 13.83 11.37 7.30 6.11 7.69 11.41 14.86 15.29 12.66 14.64 14.10 13.40 13.04
24.07 26.32 22.85 23.41 24.91 26.28 28.08 29.45 30.92 31.96 31.96 31.59 30.23 29.96 29.50 29.24 29.12 28.90 28.69 27.93 26.52 25.19 23.87 21.45 18.49 16.56 15.91 15.00 16.38 14.59 13.36 11.02 2.05 2.28 7.09 10.18 10.40 10.96 12.43 14.98 15.64 12.83 11.13 13.05
23.28 25.80 23.96 23.71 27.43 28.13 29.59 29.28 29.83 30.38 30.05 30.34 29.27 29.72 29.59 28.92 27.83 27.68 27.29 26.78 25.63 24.36 20.32 17.07 16.57 16.15 15.26 13.80 12.16 8.64 9.98 5.44 5.86 6.68 8.17 7.99 9.16 7.79 10.55 12.32 11.63 13.98 14.99 16.19
25.74 24.75 22.87 21.89 27.81 28.37 27.65 28.05 30.14 29.68 30.82 30.67 29.40 27.73 27.70 28.13 27.83 26.93 25.50 24.77 23.06 19.55 16.19 14.32 13.27 12.27 11.22 9.39 6.69 4.37 1.00 2.30 0.74 5.81 7.05 6.01 6.91 6.39 8.49 7.90 8.28 14.32 17.47 19.71
MSLP
1016.37 1016.88 1016.51 1016.62 1016.99 1016.64 1016.61 1016.87 1016.50 1016.52 1016.05 1016.18 1015.71 1015.00 1014.61 1014.71 1015.02 1015.68 1016.15 1016.41 1016.69 1016.93 1017.05 1017.14 1017.27 1017.59 1018.03 1018.41 1018.44 1018.44 1018.42 1018.58 1018.71 1019.01 1019.26 1019.32 1019.29 1018.98 1019.14 1019.15 1018.98 1018.68 1018.61 1018.82
1016.56 1016.25 1015.94 1016.13 1016.69 1017.00 1017.11 1017.12 1017.33 1017.43 1017.14 1016.80 1016.45 1015.66 1015.20 1015.03 1015.05 1015.33 1015.72 1016.26 1016.66 1017.40 1017.81 1018.24 1018.44 1018.53 1018.99 1019.30 1019.31 1019.25 1019.14 1019.00 1019.01 1019.17 1019.27 1019.40 1019.37 1019.48 1019.15 1019.24 1019.30 1019.17 1019.10 1019.12
1015.37 1015.62 1015.68 1016.19 1016.77 1017.09 1017.26 1017.31 1017.68 1017.92 1017.85 1017.67 1017.30 1016.96 1015.97 1015.06 1015.27 1015.43 1015.81 1016.39 1016.93 1017.60 1018.39 1019.02 1019.30 1019.59 1019.75 1019.79 1019.73 1019.61 1019.61 1019.68 1019.75 1019.62 1019.71 1019.70 1019.56 1019.67 1019.72 1019.63 1019.84 1019.64 1019.49 1019.52
1015.90 1015.65 1015.84 1016.03 1016.49 1016.79 1017.07 1017.32 1018.01 1018.46 1018.63 1018.44 1018.18 1017.41 1015.99 1015.64 1015.75 1015.87 1016.12 1017.00 1017.75 1018.45 1019.08 1019.51 1019.97 1020.19 1020.33 1020.53 1020.34 1020.09 1020.18 1020.13 1020.14 1020.03 1020.19 1020.39 1020.61 1020.59 1020.60 1020.39 1020.39 1019.97 1019.82 1019.75
1015.53 1015.45 1015.71 1015.82 1015.88 1016.66 1017.51 1017.53 1018.49 1019.00 1019.19 1019.34 1019.01 1018.42 1017.24 1016.39 1016.34 1016.17 1016.68 1017.23 1018.56 1019.01 1019.69 1020.22 1020.32 1020.54 1020.80 1021.02 1020.89 1020.72 1020.88 1020.84 1020.73 1020.76 1020.74 1020.98 1021.19 1021.19 1020.96 1020.77 1020.62 1020.38 1020.27 1020.21
1015.35 1015.49 1015.80 1015.46 1015.84 1016.29 1017.77 1018.49 1019.04 1019.47 1019.88 1019.99 1019.45 1019.01 1017.61 1016.64 1016.17 1016.89 1017.28 1018.39 1018.64 1019.36 1020.13 1020.91 1020.52 1020.80 1021.03 1021.27 1021.27 1021.03 1021.35 1021.43 1021.30 1021.44 1021.37 1021.53 1021.72 1021.72 1021.59 1021.40 1021.33 1021.14 1020.87 1020.82
1015.63 1015.68 1015.86 1015.54 1016.13 1016.90 1017.35 1018.04 1019.15 1020.10 1020.39 1020.10 1019.63 1019.45 1017.74 1016.41 1016.09 1016.74 1017.86 1018.91 1019.25 1019.71 1020.90 1021.13 1021.24 1021.39 1021.57 1021.66 1021.64 1021.63 1021.91 1021.86 1021.81 1021.97 1021.95 1022.05 1022.17 1022.24 1022.15 1021.99 1021.99 1021.89 1021.77 1021.63
1015.47 1016.42 1015.85 1015.32 1015.39 1016.08 1016.94 1017.14 1017.90 1019.00 1020.35 1020.25 1019.80 1018.97 1017.25 1016.67 1016.67 1016.95 1017.93 1018.66 1019.44 1020.49 1021.23 1021.40 1021.60 1021.76 1022.01 1021.94 1021.93 1022.09 1022.30 1022.36 1022.29 1022.59 1022.57 1022.56 1022.55 1022.55 1022.56 1022.39 1022.31 1022.25 1022.20 1022.13
1015.57 1015.93 1015.76 1015.43 1015.42 1016.01 1016.81 1017.05 1017.33 1018.78 1020.66 1020.24 1019.69 1018.55 1017.42 1017.35 1017.52 1017.92 1018.17 1018.94 1020.01 1020.68 1021.13 1021.46 1021.47 1021.80 1021.99 1022.11 1022.43 1022.53 1022.53 1022.57 1022.78 1022.92 1022.97 1023.08 1022.93 1022.89 1023.00 1023.01 1022.77 1022.72 1022.66 1022.14
1014.93 1015.88 1016.19 1015.90 1015.55 1016.03 1015.82 1016.57 1017.59 1018.87 1020.40 1020.62 1020.17 1019.13 1017.99 1018.16 1018.34 1018.81 1019.27 1019.56 1020.10 1020.73 1020.93 1021.09 1021.30 1021.76 1022.20 1022.62 1022.84 1022.90 1022.90 1023.18 1023.36 1023.46 1023.58 1023.65 1023.71 1023.56 1023.59 1023.45 1023.35 1023.08 1022.94 1022.66
1015.02 1015.49 1016.97 1016.38 1016.40 1016.43 1016.51 1016.77 1017.59 1018.62 1019.57 1019.89 1020.41 1019.24 1018.24 1018.12 1018.37 1018.50 1019.09 1019.56 1019.97 1020.65 1020.93 1021.24 1021.49 1021.97 1022.55 1022.86 1023.02 1023.33 1023.67 1023.85 1024.11 1024.06 1024.26 1024.17 1024.29 1024.05 1023.94 1023.96 1023.84 1023.67 1023.40 1023.14
1015.11 1015.68 1016.91 1017.45 1017.36 1016.81 1016.42 1016.82 1017.78 1018.74 1020.05 1020.23 1019.74 1019.42 1018.38 1018.01 1018.31 1018.52 1019.10 1019.51 1020.13 1020.50 1020.94 1021.34 1021.69 1022.34 1023.02 1023.43 1023.74 1024.02 1024.30 1024.35 1024.62 1024.80 1024.82 1025.01 1024.89 1024.76 1024.64 1024.75 1024.56 1024.24 1023.87 1023.63
1014.74 1016.47 1017.38 1017.99 1017.69 1017.30 1017.30 1017.45 1017.82 1018.61 1019.51 1020.20 1020.04 1019.77 1018.81 1018.22 1018.17 1018.79 1019.24 1019.75 1020.31 1020.83 1021.34 1021.64 1021.95 1022.65 1023.38 1023.95 1024.38 1024.57 1024.67 1024.92 1024.89 1025.13 1025.40 1025.57 1025.60 1025.58 1025.37 1025.15 1024.85 1024.39 1024.24 1023.91
1014.81 1016.91 1017.32 1017.42 1017.29 1017.33 1017.98 1017.90 1018.26 1018.70 1019.87 1020.23 1019.96 1019.76 1019.43 1019.02 1019.02 1019.39 1019.80 1019.99 1020.49 1020.81 1021.28 1021.83 1022.46 1023.19 1023.86 1024.32 1024.74 1025.20 1025.41 1025.63 1025.69 1025.81 1026.19 1026.41 1026.30 1026.12 1025.81 1025.45 1025.00 1024.72 1024.49 1024.16
1015.85 1018.09 1018.47 1018.78 1018.41 1017.90 1017.93 1018.13 1018.42 1018.84 1019.24 1019.62 1019.65 1019.47 1019.17 1019.03 1019.08 1019.42 1019.73 1020.06 1020.49 1020.84 1021.41 1022.14 1023.05 1023.84 1024.53 1024.99 1025.43 1025.77 1026.03 1026.24 1026.22 1026.36 1026.58 1026.64 1026.51 1026.30 1026.11 1025.84 1025.49 1025.23 1024.93 1024.59
1017.22 1019.23 1019.49 1020.72 1020.13 1019.28 1019.15 1018.67 1018.79 1018.97 1019.42 1019.55 1019.50 1019.54 1018.90 1018.82 1019.31 1019.63 1019.97 1020.35 1020.77 1021.16 1021.76 1022.67 1023.80 1024.76 1025.28 1025.59 1025.95 1026.16 1026.62 1026.75 1026.70 1026.93 1027.04 1027.03 1026.89 1026.68 1026.52 1026.25 1025.85 1025.49 1025.13 1024.75
1018.28 1019.80 1021.12 1022.83 1022.05 1020.86 1020.67 1019.21 1018.86 1019.09 1019.14 1019.33 1019.61 1019.04 1018.83 1019.11 1019.45 1019.77 1020.08 1020.35 1020.79 1021.31 1022.33 1023.41 1024.58 1025.61 1026.05 1026.37 1026.44 1026.78 1027.01 1027.07 1027.12 1027.22 1027.33 1027.34 1027.24 1026.99 1026.73 1026.40 1026.00 1025.66 1025.32 1025.00
1018.95 1020.33 1022.34 1024.40 1024.07 1022.78 1020.48 1019.21 1018.83 1018.86 1019.05 1018.98 1018.81 1018.81 1019.06 1019.42 1020.06 1020.50 1020.89 1021.05 1021.74 1022.35 1023.48 1024.52 1025.72 1026.39 1026.81 1027.01 1026.97 1027.10 1027.39 1027.71 1027.89 1027.89 1027.85 1027.78 1027.63 1027.29 1026.89 1026.56 1026.29 1026.05 1025.68 1025.22
1019.68 1021.19 1024.14 1025.69 1025.38 1023.76 1021.09 1019.75 1019.21 1019.11 1019.38 1019.26 1019.10 1019.24 1019.38 1019.79 1020.75 1021.60 1021.87 1022.18 1022.85 1023.56 1024.56 1025.43 1025.93 1026.42 1026.94 1027.36 1027.59 1027.67 1027.91 1028.05 1028.12 1028.23 1028.16 1028.03 1027.85 1027.56 1027.17 1026.73 1026.43 1026.01 1025.61 1025.10
1021.38 1022.11 1023.96 1026.24 1026.07 1024.40 1021.03 1019.66 1019.27 1019.13 1019.84 1019.68 1019.57 1019.79 1020.09 1020.76 1021.63 1022.24 1022.89 1023.42 1024.07 1024.62 1025.21 1025.79 1026.33 1026.91 1027.46 1027.87 1027.78 1027.82 1028.23 1028.51 1028.65 1028.69 1028.67 1028.49 1028.11 1027.65 1027.27 1026.91 1026.49 1026.13 1025.81 1025.33
1023.68 1024.56 1025.94 1026.39 1025.55 1023.27 1020.75 1019.79 1019.38 1019.89 1020.15 1019.71 1019.86 1020.10 1020.40 1021.13 1021.73 1022.30 1023.09 1023.73 1024.30 1025.01 1025.76 1026.36 1026.94 1027.52 1027.87 1027.97 1027.91 1028.16 1028.57 1028.91 1029.09 1029.06 1028.80 1028.49 1028.24 1027.94 1027.54 1027.11 1026.80 1026.33 1025.92 1025.56
1024.21 1024.97 1026.15 1026.15 1024.81 1022.62 1020.28 1020.07 1019.93 1019.70 1019.94 1020.05 1020.38 1020.69 1021.12 1021.62 1022.25 1022.79 1023.42 1024.15 1024.80 1025.45 1026.17 1026.72 1027.31 1027.70 1028.02 1027.99 1027.95 1028.34 1028.75 1029.11 1029.33 1029.30 1029.04 1028.67 1028.31 1027.90 1027.54 1027.27 1026.86 1026.48 1026.19 1025.74
1024.02 1023.48 1023.95 1023.92 1022.55 1021.08 1020.17 1019.77 1019.53 1019.75 1019.96 1020.40 1020.67 1021.01 1021.38 1022.03 1022.61 1023.09 1023.73 1024.36 1024.88 1025.56 1026.25 1026.86 1027.26 1027.66 1028.11 1028.41 1028.49 1028.83 1029.18 1029.39 1029.33 1029.24 1029.05 1028.79 1028.50 1028.17 1027.79 1027.41 1026.97 1026.69 1026.15 1025.63
1023.58 1023.18 1023.46 1023.19 1021.53 1020.96 1020.36 1020.07 1019.95 1020.07 1020.29 1020.36 1020.66 1021.15 1021.62 1022.14 1022.65 1023.23 1023.80 1024.41 1025.05 1025.61 1026.12 1026.76 1027.48 1028.14 1028.55 1028.69 1028.74 1028.92 1029.22 1029.43 1029.63 1029.85 1029.45 1029.07 1028.76 1028.40 1028.07 1027.79 1027.37 1026.87 1026.29 1025.70
1023.29 1022.99 1022.75 1022.37 1021.34 1020.85 1019.98 1019.86 1019.86 1020.14 1020.48 1020.87 1021.00 1021.36 1021.76 1022.29 1022.84 1023.34 1023.99 1024.46 1024.99 1025.66 1026.39 1026.92 1027.57 1028.09 1028.40 1028.62 1028.97 1029.25 1029.54 1029.77 1029.99 1029.96 1029.63 1029.32 1028.95 1028.86 1028.48 1028.05 1027.44 1026.83 1026.24 1025.66
1022.24 1021.60 1021.58 1020.89 1020.06 1020.01 1019.91 1019.41 1019.58 1020.33 1020.76 1021.12 1021.52 1021.89 1022.05 1022.64 1023.30 1023.71 1024.32 1024.72 1025.37 1026.00 1026.60 1027.22 1027.60 1028.06 1028.43 1028.84 1029.30 1029.48 1029.76 1030.01 1030.24 1030.07 1029.85 1029.62 1029.43 1029.30 1028.89 1028.43 1027.59 1026.91 1026.02 1025.42
Wind_Speed
4 4 7 9 6 2 7 3 5 3 2 3 4 4 3 4 6 6 7 7 7 7 4 5 7 7 9 8 7 6 4 3 2 1 1 2 3 2 1 3 5 4 2 1
5 7 8 9 8 6 5 7 3 1 5 2 2 2 1 3 4 5 8 8 8 7 7 8 8 9 9 6 7 7 6 6 4 2 0 0 0 1 1 2 4 5 4 5
7 5 7 10 10 11 10 13 5 4 3 1 2 1 3 2 3 4 6 6 6 8 8 6 8 7 6 7 6 6 6 6 6 5 2 2 2 2 3 4 3 4 5 4
7 5 11 12 10 3 5 10 6 7 3 4 2 5 2 3 6 4 5 6 6 7 6 6 6 6 6 4 4 6 6 6 6 7 5 5 2 2 1 2 2 4 6 5
6 17 16 15 12 12 4 12 8 3 4 3 3 2 3 3 3 6 5 8 5 6 8 5 6 5 5 5 5 5 6 7 7 7 6 4 3 2 2 3 5 6 5 6
4 1 8 5 8 5 15 12 6 4 3 2 5 3 4 5 5 3 4 4 8 7 7 4 5 5 5 5 6 6 7 6 7 7 7 7 6 5 4 4 4 4 4 4
5 4 0 4 13 16 9 12 3 3 1 3 2 6 6 3 6 7 11 9 9 9 4 5 6 5 5 5 5 5 6 6 6 7 7 6 5 5 5 5 4 6 4 4
5 5 7 6 7 8 14 4 5 5 5 3 4 6 5 3 4 9 10 10 9 9 7 6 6 6 5 5 6 6 6 6 6 5 5 5 6 4 3 4 4 3 3 4
5 3 3 3 4 14 5 3 5 8 3 3 3 4 3 4 8 8 12 12 10 8 8 7 6 5 5 5 5 5 5 6 6 6 6 6 6 7 6 6 4 4 4 4
5 6 2 1 5 2 7 7 6 3 5 2 3 3 4 3 7 7 8 12 8 7 7 6 6 5 4 4 4 6 7 7 6 7 6 6 6 7 6 6 7 7 6 6
6 4 2 2 1 6 4 3 4 5 3 5 4 5 4 3 6 10 9 9 10 8 7 6 4 5 6 5 6 7 7 8 7 6 6 7 6 6 6 6 6 7 6 7
4 5 5 3 4 1 2 6 4 5 4 0 3 3 4 2 6 7 7 8 8 7 7 5 5 7 6 6 7 7 6 6 6 5 6 6 6 7 8 7 7 7 8 7
6 3 5 4 5 3 3 3 5 5 3 3 5 4 4 6 8 6 8 7 7 6 6 5 4 7 6 6 6 6 7 7 7 7 6 7 7 7 7 6 6 7 7 7
7 5 4 6 4 8 5 5 4 5 4 4 2 4 1 3 7 6 6 7 8 8 8 6 6 6 6 6 6 6 6 6 6 6 6 6 7 7 7 7 9 9 9 8
6 5 4 6 3 4 9 9 7 4 5 5 5 7 6 7 6 4 5 4 6 7 7 6 7 6 5 6 6 5 5 5 5 6 7 7 7 7 7 8 8 7 7 8
4 4 4 7 7 5 4 5 7 5 5 5 4 3 6 4 2 2 5 6 8 6 7 8 7 6 6 6 5 6 5 6 5 6 5 5 5 5 5 5 6 6 6 7
4 7 4 2 4 5 4 6 6 4 3 8 6 8 3 1 4 4 4 3 6 7 8 9 7 5 5 5 5 5 4 4 5 5 5 5 5 5 6 7 6 8 8 8
6 5 4 3 4 2 6 3 3 5 4 5 2 2 3 3 3 4 3 1 6 9 9 7 6 6 5 3 4 4 4 4 4 4 4 5 6 6 7 7 7 7 7 7
6 5 5 5 3 4 2 3 6 7 4 2 6 3 4 3 5 3 5 4 5 6 6 5 5 5 5 4 2 4 4 4 4 5 5 6 6 7 7 7 7 7 7 7
6 8 5 3 7 6 5 2 2 3 2 3 5 4 3 6 2 3 5 4 6 6 6 6 5 4 5 3 3 5 4 4 5 6 6 5 5 5 5 6 7 6 6 8
4 5 4 2 3 8 7 4 1 8 6 5 4 3 2 3 3 4 7 5 5 5 6 5 5 5 3 1 3 4 3 4 3 4 4 3 4 5 5 6 5 6 7 7
5 6 3 3 5 6 6 4 7 5 3 5 4 3 3 5 6 6 6 6 6 6 5 5 5 4 2 2 3 3 3 1 3 4 4 4 4 4 4 5 5 5 4 6
2 5 5 7 7 3 3 1 2 4 5 5 5 5 7 7 6 7 6 7 6 6 5 4 5 5 3 3 3 2 0 2 2 3 4 3 5 4 5 4 5 5 4 3
3 3 2 3 3 6 5 3 4 5 5 4 4 6 8 6 7 7 5 4 5 6 6 5 4 3 3 2 2 2 2 0 2 3 4 4 3 5 4 4 4 4 3 5
5 5 5 4 6 6 7 8 6 5 4 4 3 5 7 7 6 6 5 6 6 5 3 3 5 5 5 5 3 2 2 2 2 3 3 3 3 3 5 4 4 5 5 6
7 8 6 8 8 6 4 2 4 8 7 9 7 4 4 6 8 6 6 4 4 5 4 3 4 3 4 5 3 3 1 3 3 3 2 2 3 3 3 5 7 8 10 15
Wind_Direction
149 165 183 183 181 82 132 110 145 12 347 297 256 171 186 140 120 166 189 183 183 193 63 61 64 80 83 47 62 47 81 25 145 164 219 263 241 237 311 334 299 291 298 350
130 201 193 166 162 166 162 143 143 337 353 98 284 144 296 167 151 161 155 157 156 111 77 60 62 64 63 68 54 49 52 42 39 53 44 82 59 22 122 360 21 31 32 30
170 187 150 155 175 180 188 167 140 127 343 57 223 277 200 189 135 140 123 116 96 130 110 80 62 60 54 47 36 46 50 55 47 36 41 15 35 26 14 17 7 15 37 37
190 161 173 160 151 161 150 173 132 113 160 166 313 197 305 214 203 181 193 100 96 83 83 92 81 61 57 42 46 54 51 47 35 28 46 46 46 57 3 3 325 352 7 359
174 177 180 179 169 148 143 120 145 129 96 88 349 93 247 260 212 223 169 108 100 113 117 92 116 107 68 48 51 56 58 47 38 46 57 64 60 23 349 15 12 11 7 18
136 209 179 151 135 131 138 105 85 76 122 187 178 127 269 216 181 142 80 101 111 88 101 117 82 95 80 58 56 60 60 42 40 46 49 57 54 23 23 11 13 358 2 8
135 129 179 170 113 138 147 138 87 82 146 194 179 178 241 222 206 169 153 156 139 107 128 135 115 96 83 74 66 72 67 54 42 46 45 43 44 41 37 24 12 4 355 356
145 161 186 168 141 167 166 155 153 144 173 173 126 212 251 270 266 124 124 125 114 135 165 147 137 126 121 96 69 65 63 59 46 42 36 33 36 35 30 23 14 7 352 326
142 95 59 84 139 146 185 160 152 99 1 79 202 263 329 52 71 119 129 133 152 156 158 145 132 121 109 96 90 98 86 68 49 44 39 30 29 29 17 7 15 1 346 339
172 103 334 218 98 44 178 167 80 21 136 183 257 250 216 155 152 146 148 156 156 159 144 137 131 127 99 102 96 74 69 62 46 44 36 39 29 32 25 25 17 10 355 355
139 126 163 109 201 169 131 147 86 113 125 148 146 247 196 207 207 179 179 169 162 159 152 153 132 108 107 99 82 72 58 56 43 46 43 49 31 37 38 31 16 7 356 354
231 102 113 123 246 290 98 135 136 124 227 260 140 256 330 335 225 193 166 162 169 163 173 162 154 137 121 98 80 79 71 67 55 49 52 42 31 26 29 17 6 358 358 348
183 108 101 76 9 12 168 172 122 111 70 193 121 252 356 38 66 93 129 137 155 173 174 173 134 133 112 95 88 75 55 46 41 41 43 35 28 23 16 5 355 357 350 343
99 90 156 168 140 130 145 133 143 115 110 168 189 148 165 125 104 107 121 139 159 183 182 159 113 105 102 89 79 67 52 40 39 46 50 40 22 12 6 359 1 359 353 348
84 98 85 33 42 93 163 165 156 117 148 130 185 152 185 173 156 166 188 191 197 210 175 149 137 122 106 95 80 66 51 40 34 56 44 24 9 6 2 357 350 342 345 342
24 135 86 34 12 68 97 129 134 114 141 96 112 245 206 238 57 275 253 208 223 228 164 137 115 111 101 92 79 58 40 32 43 52 39 13 359 345 343 338 337 338 337 336
93 132 80 275 342 65 6 198 150 146 157 144 184 219 108 358 325 292 309 325 200 178 131 115 116 112 90 74 67 60 48 42 53 40 25 8 351 346 346 340 342 350 343 333
113 95 68 147 18 62 251 339 176 139 191 211 242 174 155 190 119 42 350 237 96 100 110 112 127 128 109 97 75 88 60 59 52 37 19 2 350 345 346 348 351 342 334 332
32 89 88 133 147 279 306 193 149 160 221 242 242 300 274 117 111 34 8 57 108 117 119 120 111 110 112 81 57 94 76 65 46 21 6 357 353 346 345 345 339 336 332 326
71 58 110 83 115 180 232 176 165 143 313 182 132 121 95 144 117 229 148 108 101 105 121 127 123 102 101 49 55 85 79 56 33 8 352 341 337 328 323 325 328 324 327 329
35 16 104 100 129 285 243 247 342 93 226 161 153 128 113 124 184 151 140 127 139 136 129 113 95 99 97 64 98 85 81 56 10 335 314 318 333 326 318 333 325 322 322 321
157 126 161 95 68 290 181 93 159 199 100 143 146 157 145 132 140 156 164 158 157 152 135 115 112 125 151 79 89 92 78 28 348 331 335 342 328 329 334 319 310 314 306 312
334 162 183 174 209 257 236 354 137 144 150 178 161 169 168 157 183 178 190 184 178 163 146 148 161 163 142 83 80 125 56 17 334 341 331 319 322 321 321 318 320 322 312 317
238 170 147 81 266 229 245 248 196 186 188 187 198 172 173 181 186 200 193 175 169 178 181 167 152 138 159 163 146 146 177 96 24 331 309 304 310 328 316 317 316 305 314 329
201 131 175 273 276 307 266 225 206 210 224 226 221 194 202 179 194 195 207 207 205 193 148 144 173 186 207 197 202 207 184 112 304 274 286 307 339 331 321 321 314 326 306 303
186 182 166 216 209 168 237 270 164 180 200 212 191 220 213 187 196 185 209 206 189 192 175 183 198 193 219 214 218 233 209 187 230 292 329 336 322 323 323 330 323 323 322 330